Previsão horária em Aller

Hoje, 15 Junho, Terça-feira

Tempo Temperatura Precipitação Vento Pressão Humidade
00:00 +13°C° 0 mm 1 m/s 677 mmHg 94%
01:00 +13°C° 0 mm 1 m/s 677 mmHg 93%
02:00 +13°C° 0 mm 1 m/s 676 mmHg 93%
03:00 +13°C° 0 mm 1 m/s 676 mmHg 92%
04:00 +13°C° 0 mm 1 m/s 676 mmHg 91%
05:00 +14°C° 0 mm 1 m/s 676 mmHg 89%
06:00 +15°C° 0 mm 1 m/s 676 mmHg 88%
07:00 +18°C° 0 mm 1 m/s 676 mmHg 78%
08:00 +20°C° 0 mm 1 m/s 677 mmHg 68%
09:00 +22°C° 0 mm 1 m/s 677 mmHg 58%
10:00 +23°C° 0 mm 1 m/s 677 mmHg 54%
11:00 +24°C° 0 mm 2 m/s 677 mmHg 50%
12:00 +26°C° 0 mm 2 m/s 677 mmHg 47%
13:00 +25°C° 0.1 mm 2 m/s 676 mmHg 49%
14:00 +25°C° 0.1 mm 2 m/s 676 mmHg 51%
15:00 +25°C° 0.1 mm 2 m/s 675 mmHg 53%
16:00 +24°C° 0.2 mm 2 m/s 675 mmHg 59%
17:00 +21°C° 0.2 mm 2 m/s 675 mmHg 65%
18:00 +20°C° 0.2 mm 2 m/s 674 mmHg 71%
19:00 +20°C° 0.3 mm 1 m/s 674 mmHg 77%
20:00 +18°C° 0.3 mm 1 m/s 674 mmHg 82%
21:00 +15°C° 0.3 mm 1 m/s 674 mmHg 88%
22:00 +15°C° 0 mm 1 m/s 673 mmHg 87%
23:00 +14°C° 0 mm 1 m/s 673 mmHg 86%

Amanhã, 16 Junho, Quarta-feira

Tempo Temperatura Precipitação Vento Pressão Humidade
00:00 +14°C° 0 mm 2 m/s 672 mmHg 86%
01:00 +14°C° 0 mm 2 m/s 672 mmHg 84%
02:00 +14°C° 0 mm 2 m/s 672 mmHg 83%
03:00 +14°C° 0 mm 2 m/s 671 mmHg 81%
04:00 +15°C° 0.2 mm 2 m/s 671 mmHg 81%
05:00 +15°C° 0.2 mm 1 m/s 671 mmHg 81%
06:00 +15°C° 0.2 mm 1 m/s 671 mmHg 81%
07:00 +18°C° 0.1 mm 1 m/s 671 mmHg 74%
08:00 +19°C° 0.1 mm 2 m/s 671 mmHg 67%
09:00 +21°C° 0.1 mm 2 m/s 672 mmHg 61%
10:00 +23°C° 0.2 mm 2 m/s 672 mmHg 56%
11:00 +24°C° 0.2 mm 2 m/s 672 mmHg 51%
12:00 +25°C° 0.2 mm 2 m/s 672 mmHg 46%
13:00 +24°C° 0.2 mm 3 m/s 671 mmHg 50%
14:00 +22°C° 0.2 mm 3 m/s 671 mmHg 55%
15:00 +22°C° 0.2 mm 3 m/s 670 mmHg 59%
16:00 +19°C° 1 mm 3 m/s 670 mmHg 70%
17:00 +17°C° 1 mm 2 m/s 670 mmHg 82%
18:00 +15°C° 1 mm 2 m/s 671 mmHg 93%
19:00 +14°C° 0.8 mm 2 m/s 670 mmHg 94%
20:00 +14°C° 0.8 mm 1 m/s 670 mmHg 95%
21:00 +13°C° 0.8 mm 1 m/s 670 mmHg 97%
22:00 +13°C° 0.2 mm 1 m/s 670 mmHg 96%
23:00 +11°C° 0.2 mm 0 m/s 670 mmHg 95%

Depois de amanhã, 17 Junho, Quinta-feira

Tempo Temperatura Precipitação Vento Pressão Humidade
00:00 +11°C° 0.2 mm 0 m/s 670 mmHg 94%
01:00 +11°C° 0.3 mm 0 m/s 670 mmHg 95%
02:00 +11°C° 0.3 mm 0 m/s 670 mmHg 96%
03:00 +12°C° 0.3 mm 1 m/s 670 mmHg 97%
04:00 +12°C° 0.1 mm 1 m/s 670 mmHg 97%
05:00 +12°C° 0.1 mm 1 m/s 669 mmHg 97%
06:00 +12°C° 0.1 mm 1 m/s 669 mmHg 97%
07:00 +12°C° 0.2 mm 1 m/s 670 mmHg 96%
08:00 +13°C° 0.2 mm 1 m/s 670 mmHg 94%
09:00 +13°C° 0.2 mm 1 m/s 670 mmHg 93%
10:00 +13°C° 0.3 mm 1 m/s 670 mmHg 91%
11:00 +14°C° 0.3 mm 1 m/s 671 mmHg 88%
12:00 +14°C° 0.3 mm 1 m/s 671 mmHg 86%
13:00 +14°C° 0.5 mm 1 m/s 671 mmHg 85%
14:00 +14°C° 0.5 mm 1 m/s 671 mmHg 85%
15:00 +15°C° 0.5 mm 1 m/s 671 mmHg 84%
16:00 +14°C° 1.6 mm 1 m/s 671 mmHg 88%
17:00 +13°C° 1.6 mm 2 m/s 671 mmHg 92%
18:00 +13°C° 1.6 mm 2 m/s 671 mmHg 96%
19:00 +12°C° 1 mm 2 m/s 671 mmHg 97%
20:00 +12°C° 1 mm 1 m/s 672 mmHg 97%
21:00 +12°C° 1 mm 1 m/s 672 mmHg 98%
22:00 +11°C° 0.2 mm 1 m/s 672 mmHg 98%
23:00 +11°C° 0.2 mm 1 m/s 672 mmHg 98%

18 Junho, Sexta-feira

Tempo Temperatura Precipitação Vento Pressão Humidade
00:00 +11°C° 0.2 mm 1 m/s 672 mmHg 98%
01:00 +11°C° 0.1 mm 1 m/s 672 mmHg 98%
02:00 +11°C° 0.1 mm 1 m/s 671 mmHg 98%
03:00 +11°C° 0.1 mm 1 m/s 671 mmHg 98%
04:00 +11°C° 0.1 mm 1 m/s 672 mmHg 98%
05:00 +10°C° 0.1 mm 0 m/s 672 mmHg 97%
06:00 +10°C° 0.1 mm 0 m/s 672 mmHg 97%
07:00 +11°C° 0.1 mm 0 m/s 672 mmHg 96%
08:00 +11°C° 0.1 mm 0 m/s 672 mmHg 96%
09:00 +11°C° 0.1 mm 0 m/s 672 mmHg 95%
10:00 +13°C° 0.2 mm 1 m/s 672 mmHg 93%
11:00 +13°C° 0.2 mm 1 m/s 672 mmHg 91%
12:00 +14°C° 0.2 mm 1 m/s 673 mmHg 89%
13:00 +14°C° 0.4 mm 1 m/s 672 mmHg 88%
14:00 +14°C° 0.4 mm 1 m/s 672 mmHg 88%
15:00 +15°C° 0.4 mm 1 m/s 672 mmHg 87%
16:00 +14°C° 0.8 mm 1 m/s 672 mmHg 90%
17:00 +14°C° 0.8 mm 1 m/s 672 mmHg 92%
18:00 +13°C° 0.8 mm 1 m/s 672 mmHg 95%
19:00 +13°C° 0.3 mm 1 m/s 672 mmHg 96%
20:00 +12°C° 0.3 mm 1 m/s 672 mmHg 96%
21:00 +12°C° 0.3 mm 1 m/s 671 mmHg 96%
22:00 +12°C° 0 mm 1 m/s 671 mmHg 95%
23:00 +11°C° 0 mm 0 m/s 671 mmHg 94%

19 Junho, Sábado

Tempo Temperatura Precipitação Vento Pressão Humidade
00:00 +11°C° 0 mm 0 m/s 671 mmHg 93%
01:00 +10°C° 0.3 mm 0 m/s 670 mmHg 94%
02:00 +11°C° 0.3 mm 1 m/s 670 mmHg 95%
03:00 +11°C° 0.3 mm 1 m/s 669 mmHg 95%
04:00 +11°C° 0.1 mm 1 m/s 669 mmHg 95%
05:00 +10°C° 0.1 mm 0 m/s 669 mmHg 94%
06:00 +11°C° 0.1 mm 0 m/s 669 mmHg 94%
07:00 +11°C° 0.2 mm 0 m/s 669 mmHg 92%
08:00 +12°C° 0.2 mm 0 m/s 668 mmHg 89%
09:00 +13°C° 0.2 mm 0 m/s 668 mmHg 87%
10:00 +14°C° 0.7 mm 1 m/s 668 mmHg 87%
11:00 +14°C° 0.7 mm 1 m/s 668 mmHg 87%
12:00 +14°C° 0.7 mm 1 m/s 668 mmHg 87%
13:00 +14°C° 1.5 mm 1 m/s 668 mmHg 88%
14:00 +13°C° 1.5 mm 1 m/s 668 mmHg 89%
15:00 +13°C° 1.5 mm 1 m/s 667 mmHg 90%
16:00 +13°C° 2.9 mm 1 m/s 668 mmHg 92%
17:00 +12°C° 2.9 mm 1 m/s 668 mmHg 93%
18:00 +12°C° 2.9 mm 1 m/s 668 mmHg 94%
19:00 +11°C° 0.7 mm 1 m/s 668 mmHg 94%
20:00 +11°C° 0.7 mm 1 m/s 669 mmHg 94%
21:00 +10°C° 0.7 mm 1 m/s 669 mmHg 94%
22:00 +10°C° 0 mm 1 m/s 669 mmHg 94%
23:00 +10°C° 0 mm 1 m/s 670 mmHg 95%

20 Junho, Domingo

Tempo Temperatura Precipitação Vento Pressão Humidade
00:00 +9°C° 0 mm 1 m/s 670 mmHg 95%
01:00 +9°C° 0.2 mm 1 m/s 670 mmHg 95%
02:00 +9°C° 0.2 mm 1 m/s 670 mmHg 96%
03:00 +9°C° 0.2 mm 1 m/s 670 mmHg 96%
04:00 +9°C° 0.3 mm 1 m/s 670 mmHg 96%
05:00 +8°C° 0.3 mm 0 m/s 671 mmHg 96%
06:00 +9°C° 0.3 mm 0 m/s 671 mmHg 96%
07:00 +9°C° 0.4 mm 0 m/s 671 mmHg 96%
08:00 +9°C° 0.4 mm 0 m/s 672 mmHg 96%
09:00 +9°C° 0.4 mm 0 m/s 672 mmHg 96%
10:00 +10°C° 0.3 mm 0 m/s 672 mmHg 94%
11:00 +12°C° 0.3 mm 1 m/s 673 mmHg 92%
12:00 +12°C° 0.3 mm 1 m/s 673 mmHg 90%
13:00 +12°C° 0.4 mm 1 m/s 673 mmHg 90%
14:00 +12°C° 0.4 mm 1 m/s 673 mmHg 90%
15:00 +12°C° 0.4 mm 2 m/s 673 mmHg 90%
16:00 +12°C° 0.2 mm 1 m/s 673 mmHg 91%
17:00 +12°C° 0.2 mm 1 m/s 673 mmHg 92%
18:00 +12°C° 0.2 mm 1 m/s 673 mmHg 93%
19:00 +11°C° 0 mm 1 m/s 673 mmHg 95%
20:00 +11°C° 0 mm 1 m/s 674 mmHg 96%
21:00 +10°C° 0 mm 1 m/s 674 mmHg 97%
22:00 +10°C° 0 mm 1 m/s 674 mmHg 97%
23:00 +10°C° 0 mm 1 m/s 674 mmHg 97%
Mostrar mais